Temperature
19 19 18 18 18 18 18 18 18 18 18 18 18 18 18 18 18 18 18 18 17 17 17 17 17 17 17 17 17 17 17 17 17 17 17 17 17 17 17 17 17 17 17
19 19 18 18 18 18 18 18 18 18 18 18 18 18 18 18 18 18 17 17 17 17 17 17 17 17 17 17 17 17 17 17 17 17 17 17 17 17 17 17 17 17 17
19 19 18 18 18 18 18 18 18 18 18 18 18 18 18 18 18 18 17 17 17 17 17 17 17 17 17 17 17 17 17 17 17 17 17 17 17 17 17 17 17 17 17
19 19 18 18 18 18 18 18 18 18 18 18 18 18 18 18 18 18 17 17 17 17 17 17 17 17 17 17 17 17 17 17 17 17 17 17 17 17 17 17 16 16 16
19 19 18 18 18 18 18 18 18 18 18 18 18 18 18 17 18 18 17 17 17 17 17 17 17 17 17 17 17 17 17 17 17 17 16 16 16 16 16 16 16 16 16
19 19 18 18 18 18 18 18 18 18 18 18 18 18 17 18 18 17 17 17 17 17 17 17 17 17 17 17 17 17 16 16 16 17 16 16 16 16 16 16 16 16 16
19 19 18 18 18 18 18 18 18 18 18 17 17 17 17 17 17 17 17 17 17 17 17 17 17 17 17 16 16 16 16 16 16 16 16 16 16 16 16 16 16 16 16
19 18 18 18 18 18 18 18 18 18 17 17 17 17 17 17 17 17 17 17 17 17 17 17 17 16 16 16 16 16 16 16 16 16 16 16 16 16 16 16 16 16 16
19 19 18 18 18 18 18 18 17 17 17 17 17 17 17 17 17 17 17 17 17 17 17 17 16 16 16 16 16 16 16 16 16 16 16 16 16 16 16 16 16 16 16
19 18 18 18 18 18 18 18 17 17 17 17 17 17 17 17 16 16 17 17 16 16 16 16 16 16 16 16 16 16 16 16 16 16 16 16 16 16 16 16 16 16 16
19 18 18 18 18 18 18 17 17 17 17 17 17 17 17 17 16 16 16 16 16 16 16 16 16 16 16 16 16 16 16 16 16 16 16 16 16 16 16 15 15 15 16
19 18 18 18 18 18 17 17 17 17 17 17 17 17 17 16 16 16 16 16 16 16 16 16 16 16 16 16 16 15 15 15 15 15 16 15 15 15 15 15 15 15 15
19 18 18 18 18 18 17 17 17 17 17 17 17 16 16 16 16 16 16 16 15 16 16 16 16 16 15 15 15 15 15 15 15 15 15 15 15 15 15 15 15 15 15
19 18 18 18 18 17 17 17 17 17 17 16 16 16 16 16 16 16 16 16 15 15 15 15 15 15 15 15 15 15 15 15 15 15 15 15 15 15 15 15 15 15 15
18 18 18 18 17 17 17 17 17 16 16 16 16 16 16 16 16 16 16 15 15 15 15 15 15 15 15 15 15 15 15 15 15 14 14 14 14 15 15 15 15 15 14
18 18 18 17 17 17 17 16 16 16 16 16 16 16 15 15 15 15 15 15 15 15 15 15 15 15 15 15 15 15 15 14 14 14 14 14 14 14 14 14 14 14 14
18 18 17 17 17 17 16 16 16 16 15 15 15 15 15 15 15 15 15 15 15 15 15 15 15 15 14 15 15 14 14 14 14 14 14 14 14 14 14 14 14 14 14
18 17 17 17 17 16 16 16 16 15 15 15 15 15 15 15 15 15 15 15 15 15 15 15 14 14 14 14 14 14 14 14 14 14 14 14 14 14 14 14 14 14 14
17 17 17 17 16 16 16 16 15 15 15 15 15 15 15 15 15 15 14 14 14 14 14 14 14 14 14 14 14 14 14 14 14 14 14 14 14 14 14 14 13 14 13
17 17 17 16 16 16 16 16 15 15 15 15 15 14 14 14 14 14 14 14 14 14 14 14 14 14 14 14 13 13 13 14 14 14 13 13 13 13 13 13 13 13 13
17 17 16 16 16 16 16 15 15 15 15 15 15 15 14 14 14 14 14 14 14 14 13 13 13 13 13 13 13 13 13 13 13 13 13 13 13 13 13 13 13 13 13
17 16 16 16 16 15 15 15 15 15 15 15 15 14 14 14 14 14 14 13 13 13 13 13 13 13 13 13 13 13 13 13 13 13 13 13 12 12 12 12 12 12 13
16 16 16 16 15 15 15 15 15 15 14 14 14 14 14 14 14 14 13 13 13 13 13 13 13 13 12 12 12 12 12 12 12 12 12 12 12 12 12 12 12 12 12
16 16 16 15 15 15 15 15 14 14 14 14 14 14 14 14 13 13 13 13 13 13 13 13 12 12 12 12 12 12 12 12 12 12 12 12 12 12 12 12 12 12 12
16 15 15 15 15 15 14 14 14 14 14 14 14 14 13 13 13 13 13 13 13 13 12 12 12 12 12 12 12 12 12 12 12 12 12 11 12 12 12 12 12 12 12
15 15 15 15 15 15 14 14 14 14 14 14 14 13 13 13 13 13 13 12 12 12 12 12 12 12 12 12 12 12 12 11 11 11 11 11 11 11 11 12 12 11 11
Wind_Speed
1 1 0 0 0 0 1 1 1 1 2 2 2 3 3 3 4 5 5 6 7 7 7 6 6 7 7 8 8 7 7 7 7 7 7 7 7 7 7 7 8 8 7
2 1 0 0 0 0 1 1 1 1 1 1 1 2 3 3 4 4 4 5 6 6 7 6 6 6 5 6 6 6 7 7 7 7 7 7 7 7 7 6 6 7 8
3 2 1 0 1 1 2 2 2 2 1 1 0 1 2 3 3 4 4 4 4 5 6 6 6 5 5 6 7 7 7 7 7 7 7 7 7 7 7 7 6 6 7
3 3 2 1 1 2 2 2 2 2 1 1 0 1 1 1 3 3 3 4 3 4 5 6 5 5 5 6 7 7 7 7 8 7 7 7 7 6 6 6 6 5 5
3 3 2 1 1 2 1 2 2 2 1 1 0 0 0 1 2 2 3 3 4 4 4 5 5 5 6 6 6 6 6 7 7 7 7 7 7 7 6 6 6 6 6
3 3 2 1 2 2 1 1 2 2 1 1 1 1 1 1 1 1 2 2 3 4 4 4 4 5 6 6 5 5 5 6 6 6 6 6 7 7 7 6 6 6 6
3 3 2 2 2 2 2 2 2 2 1 1 2 2 2 2 1 0 1 1 2 2 3 3 4 3 4 5 6 6 6 6 7 7 6 6 7 7 6 7 6 6 6
3 3 3 2 2 2 2 2 2 2 1 1 2 1 2 2 2 2 1 1 1 1 2 3 3 3 3 3 4 6 6 6 7 7 7 6 7 7 7 6 6 6 6
2 2 3 3 2 2 2 2 2 2 1 1 1 2 1 1 2 2 2 1 0 0 1 1 2 2 3 3 3 3 4 5 5 5 6 7 7 7 7 7 6 7 6
1 2 2 3 3 2 2 2 2 2 3 1 1 1 1 2 1 1 2 2 1 1 1 1 1 2 3 4 4 4 4 5 5 5 5 7 8 7 7 7 7 7 7
0 1 2 2 2 2 2 2 2 2 2 2 2 1 1 1 1 1 1 2 2 2 1 1 1 2 2 3 4 4 4 4 4 4 4 5 6 7 7 7 6 6 5
1 0 1 2 2 2 2 2 2 3 2 2 2 2 2 2 2 2 2 1 2 2 1 1 1 1 2 3 4 4 4 4 4 3 3 4 5 6 6 6 6 5 5
1 2 1 2 2 2 2 2 2 2 2 2 2 2 2 2 2 2 2 1 1 1 2 1 1 1 2 3 4 5 5 5 4 3 3 3 3 3 4 5 5 5 5
3 2 2 2 2 2 2 2 2 2 2 2 2 1 1 1 2 2 3 2 1 1 1 2 1 1 2 2 3 4 4 4 4 4 3 3 2 3 4 4 4 4 4
3 3 3 2 2 2 2 2 2 1 1 1 1 1 1 1 1 2 2 3 3 1 2 2 1 2 2 2 2 2 2 2 3 3 3 3 3 3 4 4 4 4 4
3 3 3 3 2 2 2 2 2 1 2 1 1 1 0 0 0 1 2 2 2 3 2 2 2 2 2 1 2 1 1 1 2 3 3 3 3 3 3 4 4 4 5
4 4 4 3 3 2 2 2 2 1 2 1 0 1 0 0 0 0 1 1 2 3 2 2 1 2 2 2 2 1 2 2 3 4 3 3 3 4 3 4 4 5 5
4 4 4 3 3 3 3 3 3 2 2 1 1 1 1 1 0 1 1 1 2 2 3 2 2 2 2 2 1 1 1 2 2 4 4 4 4 4 4 4 5 5 5
4 4 4 4 3 3 3 3 3 3 2 2 2 2 2 1 1 1 1 1 1 1 1 2 2 1 2 2 1 1 2 2 2 3 4 5 5 5 5 5 5 5 5
4 4 4 4 4 4 3 3 3 3 2 2 2 2 2 2 3 2 2 2 2 2 1 1 1 2 2 2 1 1 2 2 2 2 2 3 4 5 5 5 5 5 5
4 4 4 4 3 3 4 4 4 3 3 2 2 2 3 3 3 3 2 2 2 2 2 1 1 2 2 1 2 2 2 3 2 2 2 2 2 3 4 5 6 6 6
3 3 3 4 4 4 4 5 5 3 3 3 2 2 2 3 3 3 3 4 4 3 3 3 3 3 3 3 2 2 2 2 2 1 1 3 2 3 3 3 4 6 7
3 3 4 4 4 4 5 5 5 4 3 3 3 2 2 1 1 1 1 1 2 3 4 4 4 4 4 3 2 2 2 3 4 2 1 3 2 3 3 3 5 5 6
3 4 4 4 4 4 5 5 5 3 3 3 3 3 3 2 2 2 1 1 1 2 3 3 4 4 4 4 4 3 3 3 3 2 2 3 3 3 3 4 5 5 5
3 3 3 4 4 5 5 6 5 3 3 3 3 3 3 3 2 2 2 1 2 3 3 2 3 3 4 3 3 2 1 1 3 3 2 3 3 3 3 3 3 4 4
3 3 3 3 4 5 5 6 6 3 3 3 3 3 4 4 4 4 3 3 3 4 3 2 2 3 3 3 3 3 3 3 3 3 3 3 2 2 2 2 2 2 2
Wind_Direction
128 130 143 86 224 214 157 151 140 136 147 163 177 176 187 203 204 202 214 214 205 204 208 215 218 216 212 206 205 199 198 202 199 199 203 211 215 216 218 212 208 211 214
163 150 129 43 355 171 142 129 135 134 152 155 173 185 198 207 210 209 214 217 212 209 210 213 214 213 211 207 208 203 201 204 203 205 207 210 216 218 217 217 215 216 218
181 167 156 184 216 167 127 104 87 94 115 126 191 230 220 214 204 203 207 209 215 218 213 209 212 214 217 220 221 212 208 210 206 205 209 212 217 221 220 219 222 225 223
179 159 157 194 177 139 130 122 105 105 104 115 286 272 243 213 209 203 203 210 213 218 217 212 212 218 228 231 227 217 214 215 212 211 212 211 211 212 215 214 216 222 229
177 158 152 157 131 120 131 145 115 127 133 127 187 315 303 225 222 209 209 212 213 217 219 221 220 227 234 239 234 228 224 220 216 215 216 214 213 213 213 215 221 232 240
165 153 140 129 124 115 107 119 111 98 117 133 85 30 358 311 223 213 223 218 218 217 220 225 233 239 236 237 243 247 236 222 215 216 218 218 218 217 219 224 229 240 247
161 146 136 118 116 121 126 120 120 100 75 84 79 25 9 17 32 264 241 235 231 216 209 221 231 240 245 237 237 239 240 234 225 221 224 228 225 223 226 231 235 242 246
172 158 143 136 131 125 107 103 110 112 78 78 112 85 9 1 15 31 42 214 230 201 209 213 214 217 226 233 239 237 236 238 233 231 229 232 234 230 230 233 244 253 254
173 155 149 144 137 140 144 132 132 136 142 78 93 134 143 237 326 360 12 22 3 215 227 216 220 222 219 220 235 238 233 240 239 241 237 235 238 238 236 236 243 252 259
162 167 154 144 140 144 148 157 143 154 150 155 87 91 148 164 170 328 343 357 359 301 260 247 259 253 238 231 235 235 234 239 244 247 251 245 241 244 244 239 241 247 254
235 186 158 142 139 145 153 152 140 144 152 160 165 153 127 105 157 177 278 321 339 315 287 259 266 273 264 243 237 234 237 245 252 253 254 251 246 245 243 240 239 241 244
286 246 155 149 158 159 166 168 154 150 158 154 156 160 164 171 185 183 216 265 300 312 326 298 268 270 271 252 239 242 238 238 244 253 257 257 253 245 242 241 239 243 247
223 231 190 165 168 172 167 155 148 153 165 161 175 182 186 203 187 173 172 211 277 318 330 318 276 264 266 260 252 248 238 228 230 245 258 271 277 254 245 246 243 246 250
212 198 175 173 178 172 165 149 149 168 161 168 186 185 189 218 201 191 176 170 207 333 336 296 309 301 287 271 262 249 240 229 230 244 252 255 264 267 255 249 247 247 246
201 183 171 168 180 169 160 148 149 173 155 168 184 175 193 234 203 205 184 181 176 229 284 284 289 318 310 286 276 258 248 242 232 234 240 237 247 262 262 253 247 247 243
189 171 164 166 172 170 155 146 156 167 151 186 180 139 174 242 192 175 166 173 185 192 235 265 264 304 319 317 314 285 260 252 235 232 233 228 236 252 260 256 252 253 247
181 178 178 171 171 169 163 154 169 159 162 190 184 155 215 173 152 167 147 153 173 177 207 271 288 311 322 321 334 314 269 255 250 239 241 241 248 257 257 262 258 253 245
184 182 169 164 171 174 173 169 183 182 176 191 206 163 227 197 193 224 175 180 185 188 189 240 294 316 305 308 309 303 302 269 255 251 246 248 254 261 262 265 267 256 239
178 173 167 173 184 183 181 186 179 184 187 200 207 199 225 196 228 233 200 190 194 177 175 203 273 296 301 317 332 314 307 305 287 274 258 255 255 260 264 266 266 264 246
181 182 182 185 189 184 182 181 177 181 182 186 204 214 221 209 220 212 200 195 173 148 153 188 264 290 290 302 313 307 308 299 291 308 303 280 267 264 259 261 261 259 254
188 182 178 183 188 188 194 187 191 193 191 204 227 233 233 217 208 201 199 194 171 166 178 200 255 278 285 301 285 277 278 291 280 289 298 297 291 284 273 256 249 248 246
179 168 175 181 194 208 201 193 189 192 197 205 228 257 258 239 221 210 204 195 183 187 205 219 238 249 259 260 268 261 270 288 290 297 276 289 286 275 280 254 243 242 241
185 185 191 189 198 212 202 197 194 192 204 215 224 247 254 250 221 215 215 212 220 220 209 210 226 239 243 235 234 248 252 260 264 278 256 279 278 273 275 262 249 245 243
193 199 204 205 206 217 207 206 206 199 212 229 230 226 223 240 227 203 196 302 281 268 246 232 230 239 241 231 224 231 240 259 268 261 224 262 276 272 280 275 251 239 239
200 205 205 206 212 228 217 210 199 199 216 236 236 229 221 225 224 183 164 252 293 297 286 247 247 259 261 247 210 202 233 267 282 270 220 238 265 276 278 269 265 243 243
207 208 215 220 222 234 230 220 201 199 216 233 242 239 230 230 222 192 194 205 242 268 272 278 305 307 292 276 234 219 221 237 262 268 225 218 251 270 284 272 272 266 252
Height
1535 1536 1536 1537 1537 1538 1538 1539 1540 1541 1542 1543 1544 1545 1546 1546 1547 1548 1549 1550 1550 1551 1552 1553 1554 1555 1556 1556 1557 1558 1559 1559 1560 1561 1562 1563 1563 1564 1565 1566 1566 1567 1568
1536 1536 1537 1537 1538 1538 1539 1539 1540 1541 1541 1542 1543 1544 1544 1545 1546 1547 1548 1549 1549 1550 1551 1552 1552 1553 1554 1555 1556 1556 1557 1558 1559 1560 1561 1561 1562 1563 1563 1564 1565 1566 1567
1537 1537 1537 1538 1538 1539 1539 1539 1540 1540 1541 1542 1543 1543 1544 1544 1544 1545 1546 1547 1548 1549 1549 1550 1551 1552 1553 1553 1554 1555 1556 1557 1557 1558 1559 1560 1560 1561 1562 1563 1563 1564 1565
1538 1538 1538 1538 1539 1539 1539 1539 1540 1540 1541 1542 1542 1542 1543 1543 1543 1544 1545 1546 1546 1547 1548 1549 1549 1550 1551 1552 1552 1553 1554 1555 1556 1556 1557 1558 1559 1559 1560 1561 1562 1562 1563
1538 1538 1538 1538 1539 1539 1539 1540 1540 1540 1541 1541 1541 1542 1542 1542 1542 1543 1544 1545 1545 1546 1547 1547 1548 1548 1549 1550 1551 1551 1552 1553 1554 1554 1555 1556 1557 1557 1558 1559 1559 1560 1561
1538 1538 1538 1538 1539 1539 1539 1540 1540 1540 1540 1541 1541 1541 1541 1541 1542 1542 1543 1544 1544 1545 1545 1546 1546 1547 1547 1548 1549 1549 1550 1551 1552 1552 1553 1554 1554 1555 1556 1556 1557 1558 1558
1538 1538 1538 1538 1538 1539 1539 1539 1540 1540 1540 1540 1540 1541 1541 1541 1541 1541 1542 1542 1543 1544 1544 1545 1545 1545 1545 1546 1547 1547 1548 1549 1550 1550 1551 1551 1552 1553 1553 1554 1554 1555 1555
1538 1538 1538 1538 1538 1538 1538 1539 1539 1539 1539 1540 1540 1540 1540 1541 1540 1541 1541 1541 1542 1542 1543 1543 1544 1544 1544 1544 1545 1545 1546 1547 1547 1548 1548 1549 1550 1550 1551 1551 1552 1552 1553
1537 1537 1537 1537 1537 1537 1537 1538 1538 1539 1539 1539 1540 1540 1540 1540 1540 1540 1540 1540 1540 1541 1541 1541 1542 1542 1542 1542 1543 1543 1543 1544 1544 1545 1545 1546 1547 1548 1548 1549 1549 1550 1550
1536 1536 1536 1536 1536 1536 1536 1537 1537 1537 1538 1538 1538 1539 1540 1539 1539 1539 1540 1539 1539 1539 1539 1539 1539 1540 1540 1540 1541 1541 1541 1542 1542 1542 1543 1543 1544 1545 1545 1546 1546 1546 1547
1535 1535 1535 1535 1535 1535 1535 1536 1536 1536 1536 1537 1537 1538 1538 1538 1538 1538 1537 1538 1538 1538 1538 1538 1538 1538 1538 1538 1538 1538 1539 1539 1540 1540 1540 1540 1541 1542 1542 1543 1543 1543 1544
1533 1534 1534 1534 1534 1534 1534 1535 1535 1535 1535 1536 1536 1536 1537 1537 1537 1536 1536 1536 1536 1536 1536 1536 1536 1536 1536 1536 1536 1536 1537 1537 1537 1538 1538 1538 1538 1539 1539 1539 1540 1540 1541
1532 1532 1533 1533 1533 1533 1533 1533 1534 1534 1534 1534 1535 1535 1535 1535 1535 1535 1535 1534 1534 1534 1534 1534 1535 1535 1535 1534 1534 1535 1535 1535 1535 1535 1535 1536 1536 1536 1536 1537 1537 1537 1538
1530 1531 1531 1531 1531 1531 1531 1532 1532 1532 1533 1533 1533 1533 1533 1533 1533 1534 1534 1533 1533 1532 1532 1533 1533 1533 1533 1533 1533 1533 1532 1532 1532 1533 1533 1533 1533 1533 1534 1534 1534 1534 1535
1528 1529 1529 1529 1530 1530 1530 1530 1530 1530 1531 1531 1531 1531 1531 1531 1531 1532 1532 1532 1532 1531 1531 1531 1531 1531 1531 1531 1531 1530 1530 1530 1530 1530 1531 1531 1531 1531 1532 1532 1532 1532 1532
1526 1526 1526 1526 1527 1528 1528 1528 1528 1529 1529 1529 1529 1529 1529 1529 1529 1530 1530 1530 1530 1530 1529 1529 1529 1529 1529 1529 1529 1528 1528 1528 1528 1528 1529 1529 1529 1529 1529 1529 1529 1529 1529
1523 1524 1524 1524 1525 1525 1526 1526 1526 1527 1527 1527 1527 1527 1527 1527 1527 1527 1527 1527 1527 1527 1527 1527 1527 1527 1527 1527 1527 1527 1527 1526 1526 1526 1526 1526 1527 1527 1526 1526 1526 1526 1526
1521 1521 1522 1522 1522 1523 1523 1523 1523 1524 1524 1525 1525 1525 1525 1525 1525 1525 1525 1525 1525 1525 1525 1524 1524 1525 1525 1525 1525 1525 1524 1524 1524 1524 1524 1524 1524 1524 1523 1523 1523 1523 1523
1518 1519 1519 1520 1520 1521 1521 1522 1522 1522 1522 1522 1522 1523 1523 1523 1522 1522 1522 1522 1523 1523 1523 1522 1522 1522 1522 1522 1522 1522 1521 1521 1521 1521 1521 1521 1520 1520 1520 1520 1520 1519 1519
1515 1516 1517 1517 1518 1518 1518 1519 1520 1520 1520 1520 1520 1520 1520 1520 1520 1520 1520 1520 1520 1520 1520 1520 1520 1520 1520 1519 1519 1518 1518 1518 1518 1518 1517 1517 1517 1517 1516 1516 1516 1516 1516
1512 1513 1514 1515 1515 1515 1516 1516 1517 1517 1517 1517 1518 1518 1517 1517 1517 1517 1517 1518 1518 1518 1518 1518 1517 1517 1517 1516 1516 1516 1515 1515 1514 1514 1514 1514 1513 1513 1513 1513 1512 1512 1512
1509 1510 1511 1511 1512 1513 1513 1514 1514 1515 1514 1515 1515 1515 1515 1515 1514 1515 1515 1515 1516 1515 1515 1515 1515 1515 1514 1514 1513 1513 1512 1511 1510 1511 1510 1510 1510 1509 1509 1509 1509 1509 1509
1507 1507 1508 1508 1509 1510 1510 1511 1511 1512 1512 1512 1512 1512 1512 1512 1512 1512 1513 1513 1513 1513 1513 1513 1512 1511 1511 1511 1510 1509 1509 1508 1507 1507 1507 1506 1506 1506 1506 1506 1506 1506 1505
1504 1504 1505 1506 1506 1507 1507 1508 1508 1509 1509 1509 1509 1509 1509 1509 1509 1510 1510 1509 1509 1510 1509 1509 1509 1508 1508 1508 1507 1507 1506 1505 1504 1504 1504 1503 1502 1502 1502 1502 1502 1502 1501
1501 1502 1502 1503 1503 1504 1504 1505 1505 1506 1506 1506 1507 1507 1506 1506 1507 1507 1507 1507 1506 1506 1507 1506 1506 1505 1505 1505 1504 1504 1503 1502 1501 1501 1501 1500 1499 1498 1498 1498 1498 1498 1497
1498 1499 1499 1500 1500 1501 1501 1502 1502 1502 1503 1503 1504 1504 1504 1504 1504 1504 1504 1504 1503 1503 1503 1503 1503 1502 1502 1502 1501 1501 1500 1499 1498 1497 1497 1496 1495 1495 1494 1493 1494 1494 1493